STARLINK-1942, 46794

Orbit data source: Space-Track

STARLINK-1942, 46794 is a payload satellite owned by SpaceX/Seattle (US) in LEO that was launched on Sat, 24 Oct 2020 UTC via an FALCON 9 launch vehicle from the Air Force Eastern Test Range (AFETR). Payload-class satellites include a variety of spacecraft equipped with specific instruments for various scientific and technological missions. These include communications satellites like Starlink; space stations such as the ISS; scientific satellites like the Hubble; Earth observation satellites from companies like Planet Labs, Umbra, and HawkEye 360; GPS; miniature CubeSats for education and research; and military/defense satellites.

Loading next visibility...
Identifier
46794, 2020-074BH
Orbit
LEO
Country
Flag of USUS
Related business
Manufacturer
SpaceX/Seattle
Mission
Partially operational Commercial Communications
Bus & Motor
STARLINK, Unknown motor
Mass
260 kg wet, ~248 kg dry
Launch date (UTC)
2020-10-24 (5 years ago)
Launch vehicle
FALCON 9
Launch site
Air Force Eastern Test Range (AFETR)
Object type
Payload
Rocket body
Debris
Shape & HBR
Box + 1 Pan, 10.1 m
Radar Cross Section
13.562 m², Large (>1 m²)

Expand to show TLE details & history
Last TLE update: 20 hours ago

TLE from 20 hours ago
0 STARLINK-1942
1 46794U 20074BH  26035.85153637  .00132529  00000-0  29803-2 0  9993
2 46794  53.0471  90.4524 0004192 284.0530  76.0009 15.42375085291996
Epoch: 2026-02-04T20:26Z
TLE epoch observation values (Epoch: 2026-02-04T20:26:12.742Z)
Latitude
0.00003°
Longitude
8.88715°
Altitude
439.304 km
Speed
7.65 km/s
True Right ascension
06h 01m 48s
True Declination
0° 00' 00"
Sunlit
Object was in full shadow at epoch
Visualization orbit readout
Latitude
Unknown
Longitude
Unknown
Altitude
Unknown
Speed
Unknown
Apparent Right ascension
Unknown
Apparent Declination
Unknown
Sunlit
N/A
Visualization observer readout
Local Sidereal Time
18:28:39
Azimuth
Unknown
Elevation
Unknown
Doppler factor
Unknown
Orbital elements
Apogee altitude
442.236 km
Perigee altitude
436.52 km
Semi-major axis
6,817.515 km
Eccentricity
0.00042
Inclination
53.0471°
RAAN
90.4524°
Arg. of periapsis
284.053°
True anomaly
76.04752°
Mean anomaly
76.0009°
Eccentric anomaly
76.02421°
Mean motion
3.85571 °/min
Orbital period
93.37 mins
BSTAR
0.0029803
Loading maneuver chart data...
Computing Atmospheric mass density...

Documentation

Showing up to 5 results
|